Time,TemperatureF,DewpointF,PressureIn,WindDirection,WindDirectionDegrees,WindSpeedMPH,WindSpeedGustMPH,Humidity,HourlyPrecipIn,Conditions,Clouds,dailyrainin,SoftwareType,DateUTC
2013-01-31 00:04:00,22.5,18.0,29.35,NW,315,0.0,0.0,84,0.00,,,0.00,TxWx,2013-01-31 06:04:00,
2013-01-31 00:09:00,22.5,18.0,29.35,NW,317,0.0,0.0,85,0.00,,,0.00,TxWx,2013-01-31 06:09:00,
2013-01-31 00:14:00,22.5,18.0,29.36,NW,320,0.0,0.0,85,0.00,,,0.00,TxWx,2013-01-31 06:14:00,
2013-01-31 00:19:00,22.3,17.0,29.36,NW,316,0.0,0.0,85,0.00,,,0.00,TxWx,2013-01-31 06:19:00,
2013-01-31 00:25:00,22.2,17.0,29.36,NNW,332,0.0,0.0,84,0.00,,,0.00,TxWx,2013-01-31 06:25:00,
2013-01-31 00:30:00,22.0,16.0,29.36,NNW,346,0.0,0.0,83,0.00,,,0.00,TxWx,2013-01-31 06:30:00,
2013-01-31 00:35:00,21.9,16.0,29.37,NW,316,0.0,0.0,82,0.00,,,0.00,TxWx,2013-01-31 06:35:00,
2013-01-31 00:40:00,21.6,16.0,29.37,NW,313,0.0,0.0,80,0.00,,,0.00,TxWx,2013-01-31 06:40:00,
2013-01-31 00:45:00,21.6,15.0,29.37,NE,56,0.0,0.0,79,0.00,,,0.00,TxWx,2013-01-31 06:45:00,
2013-01-31 00:50:00,21.7,15.0,29.37,NW,318,0.0,0.0,78,0.00,,,0.00,TxWx,2013-01-31 06:50:00,
2013-01-31 00:56:00,21.7,15.0,29.38,NW,320,0.0,0.0,78,0.00,,,0.00,TxWx,2013-01-31 06:56:00,
2013-01-31 01:01:00,21.7,15.0,29.38,NNW,346,0.0,0.0,77,0.00,,,0.00,TxWx,2013-01-31 07:01:00,
2013-01-31 01:06:00,21.6,15.0,29.39,NW,319,0.0,0.0,77,0.00,,,0.00,TxWx,2013-01-31 07:06:00,
2013-01-31 01:11:00,21.6,14.0,29.39,NW,318,0.0,0.0,76,0.00,,,0.00,TxWx,2013-01-31 07:11:00,
2013-01-31 01:17:00,21.5,15.0,29.39,NNW,346,0.0,0.0,77,0.00,,,0.00,TxWx,2013-01-31 07:17:00,
2013-01-31 01:22:00,21.4,15.0,29.40,NW,318,0.0,0.0,80,0.00,,,0.00,TxWx,2013-01-31 07:22:00,
2013-01-31 01:27:00,21.2,15.0,29.40,NNW,346,0.0,0.0,81,0.00,,,0.00,TxWx,2013-01-31 07:27:00,
2013-01-31 01:33:00,21.1,16.0,29.41,NNW,346,0.0,0.0,83,0.00,,,0.00,TxWx,2013-01-31 07:33:00,
2013-01-31 01:38:00,20.9,16.0,29.41,NW,313,0.0,0.0,85,0.00,,,0.00,TxWx,2013-01-31 07:38:00,
2013-01-31 01:43:00,20.8,16.0,29.41,NNW,346,0.0,0.0,85,0.00,,,0.00,TxWx,2013-01-31 07:43:00,
2013-01-31 01:48:00,20.2,16.0,29.41,NW,315,0.0,0.0,88,0.00,,,0.00,TxWx,2013-01-31 07:48:00,
2013-01-31 01:53:00,20.1,16.0,29.41,NNW,346,0.0,0.0,87,0.00,,,0.00,TxWx,2013-01-31 07:53:00,
2013-01-31 01:58:00,20.1,15.0,29.42,NW,314,0.0,0.0,86,0.00,,,0.00,TxWx,2013-01-31 07:58:00,
2013-01-31 02:03:00,20.1,15.0,29.42,NNW,346,0.0,0.0,84,0.00,,,0.00,TxWx,2013-01-31 08:03:00,
2013-01-31 02:09:00,20.2,15.0,29.42,NW,315,0.0,0.0,83,0.00,,,0.00,TxWx,2013-01-31 08:09:00,
2013-01-31 02:14:00,20.4,13.0,29.42,NNW,346,0.0,0.0,79,0.00,,,0.00,TxWx,2013-01-31 08:14:00,
2013-01-31 02:19:00,20.5,14.0,29.42,NW,313,0.0,0.0,77,0.00,,,0.00,TxWx,2013-01-31 08:19:00,
2013-01-31 02:25:00,20.5,14.0,29.42,NW,315,0.0,0.0,76,0.00,,,0.00,TxWx,2013-01-31 08:25:00,
2013-01-31 02:30:00,20.5,14.0,29.43,NW,315,0.0,0.0,77,0.00,,,0.00,TxWx,2013-01-31 08:30:00,
2013-01-31 02:35:00,20.4,13.0,29.43,NW,316,0.0,0.0,77,0.00,,,0.00,TxWx,2013-01-31 08:35:00,
2013-01-31 02:40:00,20.3,13.0,29.43,NW,315,0.0,0.0,78,0.00,,,0.00,TxWx,2013-01-31 08:40:00,
2013-01-31 02:45:00,20.1,14.0,29.43,NW,317,0.0,0.0,81,0.00,,,0.00,TxWx,2013-01-31 08:45:00,
2013-01-31 02:51:00,19.9,15.0,29.43,NW,313,0.0,0.0,83,0.00,,,0.00,TxWx,2013-01-31 08:51:00,
2013-01-31 02:56:00,19.6,15.0,29.43,NNW,348,0.0,0.0,85,0.00,,,0.00,TxWx,2013-01-31 08:56:00,
2013-01-31 03:01:00,19.7,16.0,29.44,NNW,348,0.0,0.0,87,0.00,,,0.00,TxWx,2013-01-31 09:01:00,
2013-01-31 03:06:00,19.6,14.0,29.43,NW,316,0.0,0.0,82,0.00,,,0.00,TxWx,2013-01-31 09:06:00,
2013-01-31 03:11:00,19.6,14.0,29.44,NW,315,0.0,0.0,81,0.00,,,0.00,TxWx,2013-01-31 09:11:00,
2013-01-31 03:20:00,19.1,14.0,29.44,NW,314,0.0,0.0,84,0.00,,,0.00,TxWx,2013-01-31 09:20:00,
2013-01-31 03:26:00,18.9,15.0,29.44,NNW,347,0.0,0.0,87,0.00,,,0.00,TxWx,2013-01-31 09:26:00,
2013-01-31 03:31:00,18.5,15.0,29.45,NNW,347,0.0,0.0,88,0.00,,,0.00,TxWx,2013-01-31 09:31:00,
2013-01-31 03:36:00,18.4,14.0,29.45,NW,314,0.0,0.0,88,0.00,,,0.00,TxWx,2013-01-31 09:36:00,
2013-01-31 03:41:00,18.4,14.0,29.45,NNW,346,0.0,0.0,86,0.00,,,0.00,TxWx,2013-01-31 09:41:00,
2013-01-31 03:46:00,18.4,13.0,29.45,NE,55,0.0,0.0,84,0.00,,,0.00,TxWx,2013-01-31 09:46:00,
2013-01-31 03:51:00,18.3,12.0,29.46,NNW,347,0.0,0.0,82,0.00,,,0.00,TxWx,2013-01-31 09:51:00,
2013-01-31 03:56:00,17.6,13.0,29.46,NW,313,0.0,0.0,86,0.00,,,0.00,TxWx,2013-01-31 09:56:00,
2013-01-31 04:01:00,17.4,12.0,29.46,NNW,347,0.0,0.0,86,0.00,,,0.00,TxWx,2013-01-31 10:01:00,
2013-01-31 04:07:00,17.3,12.0,29.46,NE,55,0.0,0.0,83,0.00,,,0.00,TxWx,2013-01-31 10:07:00,
2013-01-31 04:12:00,17.4,11.0,29.47,NW,315,0.0,0.0,81,0.00,,,0.00,TxWx,2013-01-31 10:12:00,
2013-01-31 04:17:00,17.4,11.0,29.47,NW,314,0.0,0.0,81,0.00,,,0.00,TxWx,2013-01-31 10:17:00,
2013-01-31 04:23:00,17.2,11.0,29.47,NNW,346,0.0,0.0,82,0.00,,,0.00,TxWx,2013-01-31 10:23:00,
2013-01-31 04:28:00,17.3,11.0,29.47,NNW,346,0.0,0.0,80,0.00,,,0.00,TxWx,2013-01-31 10:28:00,
2013-01-31 04:33:00,17.3,11.0,29.48,NNW,346,0.0,0.0,80,0.00,,,0.00,TxWx,2013-01-31 10:33:00,
2013-01-31 04:38:00,17.2,11.0,29.48,NE,55,0.0,0.0,80,0.00,,,0.00,TxWx,2013-01-31 10:38:00,
2013-01-31 04:43:00,17.3,10.0,29.48,NE,54,0.0,0.0,78,0.00,,,0.00,TxWx,2013-01-31 10:43:00,
2013-01-31 04:49:00,17.3,10.0,29.48,NNW,346,0.0,0.0,78,0.00,,,0.00,TxWx,2013-01-31 10:49:00,
2013-01-31 04:54:00,17.2,10.0,29.49,NNW,346,0.0,0.0,77,0.00,,,0.00,TxWx,2013-01-31 10:54:00,
2013-01-31 04:59:00,17.1,10.0,29.49,NNW,347,0.0,0.0,78,0.00,,,0.00,TxWx,2013-01-31 10:59:00,
2013-01-31 05:04:00,17.0,10.0,29.49,NNW,347,0.0,0.0,77,0.00,,,0.00,TxWx,2013-01-31 11:04:00,
2013-01-31 05:09:00,16.7,11.0,29.49,NNW,347,0.0,0.0,80,0.00,,,0.00,TxWx,2013-01-31 11:09:00,
2013-01-31 05:14:00,16.5,11.0,29.49,NE,54,0.0,0.0,83,0.00,,,0.00,TxWx,2013-01-31 11:14:00,
2013-01-31 05:19:00,16.3,11.0,29.49,NW,316,0.0,0.0,84,0.00,,,0.00,TxWx,2013-01-31 11:19:00,
2013-01-31 05:24:00,16.2,11.0,29.49,NW,316,0.0,0.0,85,0.00,,,0.00,TxWx,2013-01-31 11:24:00,
2013-01-31 05:29:00,16.2,11.0,29.49,NW,314,0.0,0.0,83,0.00,,,0.00,TxWx,2013-01-31 11:29:00,
2013-01-31 05:35:00,16.2,11.0,29.50,NW,313,0.0,0.0,85,0.00,,,0.00,TxWx,2013-01-31 11:35:00,
2013-01-31 05:40:00,16.3,11.0,29.49,NNW,347,0.0,0.0,83,0.00,,,0.00,TxWx,2013-01-31 11:40:00,
2013-01-31 05:45:00,16.5,10.0,29.49,NE,56,0.0,0.0,81,0.00,,,0.00,TxWx,2013-01-31 11:45:00,
2013-01-31 05:50:00,16.6,10.0,29.49,NNW,348,0.0,0.0,79,0.00,,,0.00,TxWx,2013-01-31 11:50:00,
2013-01-31 05:55:00,17.1,8.0,29.49,NW,314,0.0,0.0,72,0.00,,,0.00,TxWx,2013-01-31 11:55:00,
2013-01-31 06:00:00,17.3,8.0,29.49,NW,325,0.0,0.0,70,0.00,,,0.00,TxWx,2013-01-31 12:00:00,
2013-01-31 06:05:00,17.3,8.0,29.49,NW,322,0.0,0.0,70,0.00,,,0.00,TxWx,2013-01-31 12:05:00,
2013-01-31 06:10:00,17.4,8.0,29.49,NNW,348,0.0,0.0,71,0.00,,,0.00,TxWx,2013-01-31 12:10:00,
2013-01-31 06:15:00,17.2,9.0,29.49,NNW,348,0.0,0.0,72,0.00,,,0.00,TxWx,2013-01-31 12:15:00,
2013-01-31 06:20:00,16.9,10.0,29.50,NNW,348,0.0,0.0,77,0.00,,,0.00,TxWx,2013-01-31 12:20:00,
2013-01-31 06:25:00,16.6,11.0,29.50,NNW,348,0.0,0.0,80,0.00,,,0.00,TxWx,2013-01-31 12:25:00,
2013-01-31 06:31:00,16.6,11.0,29.50,NNW,348,0.0,0.0,81,0.00,,,0.00,TxWx,2013-01-31 12:31:00,
2013-01-31 06:36:00,16.5,10.0,29.51,NNW,348,0.0,0.0,82,0.00,,,0.00,TxWx,2013-01-31 12:36:00,
2013-01-31 06:41:00,16.4,11.0,29.51,NNW,348,0.0,0.0,83,0.00,,,0.00,TxWx,2013-01-31 12:41:00,
2013-01-31 06:46:00,16.1,11.0,29.51,NW,314,0.0,0.0,85,0.00,,,0.00,TxWx,2013-01-31 12:46:00,
2013-01-31 06:51:00,15.9,12.0,29.51,NNW,348,0.0,0.0,86,0.00,,,0.00,TxWx,2013-01-31 12:51:00,
2013-01-31 06:56:00,15.8,11.0,29.51,NNW,348,0.0,0.0,85,0.00,,,0.00,TxWx,2013-01-31 12:56:00,
2013-01-31 07:02:00,16.0,11.0,29.51,NNW,348,0.0,0.0,86,0.00,,,0.00,TxWx,2013-01-31 13:02:00,
2013-01-31 07:07:00,16.0,11.0,29.52,NNW,348,0.0,0.0,85,0.00,,,0.00,TxWx,2013-01-31 13:07:00,
2013-01-31 07:12:00,15.9,11.0,29.52,NNW,348,0.0,0.0,83,0.00,,,0.00,TxWx,2013-01-31 13:12:00,
2013-01-31 07:17:00,15.7,11.0,29.52,NNW,348,0.0,0.0,84,0.00,,,0.00,TxWx,2013-01-31 13:17:00,
2013-01-31 07:22:00,15.7,11.0,29.52,NE,55,0.0,0.0,85,0.00,,,0.00,TxWx,2013-01-31 13:22:00,
2013-01-31 07:27:00,15.8,11.0,29.53,NE,49,0.0,0.0,83,0.00,,,0.00,TxWx,2013-01-31 13:27:00,
2013-01-31 07:33:00,15.9,11.0,29.53,NW,315,0.0,0.0,83,0.00,,,0.00,TxWx,2013-01-31 13:33:00,
2013-01-31 07:38:00,16.0,10.0,29.53,NNW,348,0.0,0.0,82,0.00,,,0.00,TxWx,2013-01-31 13:38:00,
2013-01-31 07:43:00,16.2,10.0,29.53,NE,55,0.0,0.0,81,0.00,,,0.00,TxWx,2013-01-31 13:43:00,
2013-01-31 07:48:00,16.1,10.0,29.53,NNW,348,0.0,0.0,80,0.00,,,0.00,TxWx,2013-01-31 13:48:00,
2013-01-31 07:53:00,16.1,10.0,29.54,NNW,348,0.0,0.0,80,0.00,,,0.00,TxWx,2013-01-31 13:53:00,
2013-01-31 07:58:00,16.2,10.0,29.54,NW,313,0.0,0.0,79,0.00,,,0.00,TxWx,2013-01-31 13:58:00,
2013-01-31 08:04:00,16.3,10.0,29.54,NNW,348,0.0,0.0,79,0.00,,,0.00,TxWx,2013-01-31 14:04:00,
2013-01-31 08:09:00,16.5,10.0,29.55,NW,314,0.0,0.0,79,0.00,,,0.00,TxWx,2013-01-31 14:09:00,
2013-01-31 08:14:00,16.6,10.0,29.55,NW,314,0.0,0.0,78,0.00,,,0.00,TxWx,2013-01-31 14:14:00,
2013-01-31 08:19:00,16.8,10.0,29.55,NE,47,0.0,0.0,77,0.00,,,0.00,TxWx,2013-01-31 14:19:00,
2013-01-31 08:24:00,16.7,10.0,29.56,NNW,348,0.0,0.0,77,0.00,,,0.00,TxWx,2013-01-31 14:24:00,
2013-01-31 08:29:00,16.8,10.0,29.56,NNW,348,0.0,0.0,78,0.00,,,0.00,TxWx,2013-01-31 14:29:00,
2013-01-31 08:34:00,16.6,10.0,29.56,NNW,348,0.0,0.0,78,0.00,,,0.00,TxWx,2013-01-31 14:34:00,
2013-01-31 08:40:00,16.7,10.0,29.56,NW,314,0.0,0.0,76,0.00,,,0.00,TxWx,2013-01-31 14:40:00,
2013-01-31 08:45:00,17.0,9.0,29.56,NE,49,0.0,0.0,74,0.00,,,0.00,TxWx,2013-01-31 14:45:00,
2013-01-31 08:50:00,17.2,9.0,29.56,NW,314,0.0,0.0,73,0.00,,,0.00,TxWx,2013-01-31 14:50:00,
2013-01-31 08:55:00,17.2,9.0,29.57,NNW,348,0.0,0.0,75,0.00,,,0.00,TxWx,2013-01-31 14:55:00,
2013-01-31 09:01:00,17.0,10.0,29.57,NW,316,0.0,0.0,77,0.00,,,0.00,TxWx,2013-01-31 15:01:00,
2013-01-31 09:06:00,17.1,11.0,29.57,NNW,348,0.0,0.0,80,0.00,,,0.00,TxWx,2013-01-31 15:06:00,
2013-01-31 09:11:00,16.8,11.0,29.57,NNW,348,0.0,0.0,82,0.00,,,0.00,TxWx,2013-01-31 15:11:00,
2013-01-31 09:16:00,16.4,11.0,29.57,NNW,348,0.0,0.0,83,0.00,,,0.00,TxWx,2013-01-31 15:16:00,
2013-01-31 09:21:00,16.6,11.0,29.57,NNW,348,0.0,0.0,82,0.00,,,0.00,TxWx,2013-01-31 15:21:00,
2013-01-31 09:26:00,16.8,11.0,29.57,NNW,348,0.0,0.0,82,0.00,,,0.00,TxWx,2013-01-31 15:26:00,
2013-01-31 09:32:00,17.1,11.0,29.57,NNW,348,0.0,0.0,82,0.00,,,0.00,TxWx,2013-01-31 15:32:00,
2013-01-31 09:37:00,16.7,10.0,29.57,NW,315,0.0,0.0,78,0.00,,,0.00,TxWx,2013-01-31 15:37:00,
2013-01-31 09:42:00,17.2,10.0,29.57,NW,317,0.0,0.0,78,0.00,,,0.00,TxWx,2013-01-31 15:42:00,
2013-01-31 09:47:00,17.1,9.0,29.58,NNW,348,0.0,0.0,73,0.00,,,0.00,TxWx,2013-01-31 15:47:00,
2013-01-31 09:52:00,17.3,8.0,29.58,NW,318,0.0,0.0,71,0.00,,,0.00,TxWx,2013-01-31 15:52:00,
2013-01-31 09:57:00,17.4,7.0,29.58,NW,314,0.0,0.0,69,0.00,,,0.00,TxWx,2013-01-31 15:57:00,
2013-01-31 10:02:00,17.5,7.0,29.58,North,349,0.0,0.0,69,0.00,,,0.00,TxWx,2013-01-31 16:02:00,
2013-01-31 10:07:00,17.6,8.0,29.58,North,349,0.0,0.0,69,0.00,,,0.00,TxWx,2013-01-31 16:07:00,
2013-01-31 10:12:00,17.8,9.0,29.58,NW,318,0.0,0.0,69,0.00,,,0.00,TxWx,2013-01-31 16:12:00,
2013-01-31 10:17:00,17.2,7.0,29.58,North,349,0.0,0.0,68,0.00,,,0.00,TxWx,2013-01-31 16:17:00,
2013-01-31 10:23:00,18.1,9.0,29.59,North,349,0.0,0.0,70,0.00,,,0.00,TxWx,2013-01-31 16:23:00,
2013-01-31 10:28:00,18.0,9.0,29.59,North,349,0.0,0.0,71,0.00,,,0.00,TxWx,2013-01-31 16:28:00,
2013-01-31 10:33:00,17.6,9.0,29.59,NW,316,0.0,0.0,71,0.00,,,0.00,TxWx,2013-01-31 16:33:00,
2013-01-31 10:38:00,17.4,8.0,29.59,North,349,0.0,0.0,71,0.00,,,0.00,TxWx,2013-01-31 16:38:00,
2013-01-31 10:44:00,17.8,10.0,29.59,North,350,0.0,0.0,73,0.00,,,0.00,TxWx,2013-01-31 16:44:00,
2013-01-31 10:49:00,17.6,8.0,29.60,North,349,0.0,0.0,69,0.00,,,0.00,TxWx,2013-01-31 16:49:00,
2013-01-31 10:54:00,17.5,7.0,29.60,North,349,0.0,0.0,68,0.00,,,0.00,TxWx,2013-01-31 16:54:00,
2013-01-31 10:59:00,17.1,8.0,29.60,North,350,0.0,0.0,71,0.00,,,0.00,TxWx,2013-01-31 16:59:00,
2013-01-31 11:04:00,17.0,9.0,29.60,North,350,0.0,0.0,72,0.00,,,0.00,TxWx,2013-01-31 17:04:00,
2013-01-31 11:09:00,16.7,9.0,29.60,NW,314,0.0,0.0,73,0.00,,,0.00,TxWx,2013-01-31 17:09:00,
2013-01-31 11:14:00,16.5,10.0,29.60,NW,319,0.0,0.0,76,0.00,,,0.00,TxWx,2013-01-31 17:14:00,
2013-01-31 11:19:00,16.4,9.0,29.61,NE,56,0.0,0.0,78,0.00,,,0.00,TxWx,2013-01-31 17:19:00,
2013-01-31 11:24:00,16.5,10.0,29.60,NW,319,0.0,0.0,80,0.00,,,0.00,TxWx,2013-01-31 17:24:00,
2013-01-31 11:29:00,16.0,10.0,29.60,NW,316,0.0,0.0,81,0.00,,,0.00,TxWx,2013-01-31 17:29:00,
2013-01-31 11:34:00,16.4,11.0,29.60,NW,316,0.0,0.0,84,0.00,,,0.00,TxWx,2013-01-31 17:34:00,
2013-01-31 11:39:00,16.5,12.0,29.60,North,351,0.0,0.0,85,0.00,,,0.00,TxWx,2013-01-31 17:39:00,
2013-01-31 11:45:00,16.1,11.0,29.61,North,350,0.0,0.0,83,0.00,,,0.00,TxWx,2013-01-31 17:45:00,
2013-01-31 11:50:00,16.6,11.0,29.60,North,350,0.0,0.0,79,0.00,,,0.00,TxWx,2013-01-31 17:50:00,
2013-01-31 11:55:00,16.6,9.0,29.60,North,350,0.0,0.0,73,0.00,,,0.00,TxWx,2013-01-31 17:55:00,
2013-01-31 12:00:00,16.6,9.0,29.60,North,350,0.0,0.0,72,0.00,,,0.00,TxWx,2013-01-31 18:00:00,
2013-01-31 12:06:00,16.5,9.0,29.60,North,350,0.0,0.0,73,0.00,,,0.00,TxWx,2013-01-31 18:06:00,
2013-01-31 12:11:00,16.7,9.0,29.60,North,11,0.0,0.0,73,0.00,,,0.00,TxWx,2013-01-31 18:11:00,
2013-01-31 12:16:00,16.5,8.0,29.60,NW,314,0.0,0.0,74,0.00,,,0.00,TxWx,2013-01-31 18:16:00,
2013-01-31 12:21:00,16.8,10.0,29.61,NW,323,0.0,0.0,76,0.00,,,0.00,TxWx,2013-01-31 18:21:00,
2013-01-31 12:26:00,16.4,8.0,29.61,NW,313,0.0,0.0,75,0.00,,,0.00,TxWx,2013-01-31 18:26:00,
2013-01-31 12:32:00,16.4,10.0,29.62,NW,316,0.0,0.0,79,0.00,,,0.00,TxWx,2013-01-31 18:32:00,
2013-01-31 12:37:00,16.1,8.0,29.62,North,350,0.0,0.0,74,0.00,,,0.00,TxWx,2013-01-31 18:37:00,
2013-01-31 12:42:00,16.3,7.0,29.61,North,350,0.0,0.0,71,0.00,,,0.00,TxWx,2013-01-31 18:42:00,
2013-01-31 12:48:00,16.7,8.0,29.61,North,350,0.0,0.0,71,0.00,,,0.00,TxWx,2013-01-31 18:48:00,
2013-01-31 12:53:00,16.2,7.0,29.62,NW,315,0.0,0.0,70,0.00,,,0.00,TxWx,2013-01-31 18:53:00,
2013-01-31 12:58:00,16.4,6.0,29.62,NW,313,0.0,0.0,69,0.00,,,0.00,TxWx,2013-01-31 18:58:00,
2013-01-31 13:03:00,16.1,6.0,29.62,North,351,0.0,0.0,66,0.00,,,0.00,TxWx,2013-01-31 19:03:00,
2013-01-31 13:08:00,15.8,6.0,29.63,NNE,25,0.0,0.0,67,0.00,,,0.00,TxWx,2013-01-31 19:08:00,
2013-01-31 13:13:00,15.7,6.0,29.63,North,351,0.0,0.0,68,0.00,,,0.00,TxWx,2013-01-31 19:13:00,
2013-01-31 13:18:00,15.8,6.0,29.63,North,351,0.0,0.0,68,0.00,,,0.00,TxWx,2013-01-31 19:18:00,
2013-01-31 13:24:00,15.9,6.0,29.63,North,355,0.0,0.0,68,0.00,,,0.00,TxWx,2013-01-31 19:24:00,
2013-01-31 13:29:00,15.7,7.0,29.63,North,351,0.0,0.0,69,0.00,,,0.00,TxWx,2013-01-31 19:29:00,
2013-01-31 13:34:00,15.3,5.0,29.63,NW,320,0.0,0.0,68,0.00,,,0.00,TxWx,2013-01-31 19:34:00,
2013-01-31 13:39:00,15.6,7.0,29.63,North,351,0.0,0.0,72,0.00,,,0.00,TxWx,2013-01-31 19:39:00,
2013-01-31 13:44:00,15.4,6.0,29.63,NW,313,0.0,0.0,69,0.00,,,0.00,TxWx,2013-01-31 19:44:00,
2013-01-31 13:49:00,15.8,7.0,29.64,North,351,0.0,0.0,71,0.00,,,0.00,TxWx,2013-01-31 19:49:00,
2013-01-31 13:55:00,15.4,6.0,29.64,North,351,0.0,0.0,70,0.00,,,0.00,TxWx,2013-01-31 19:55:00,
2013-01-31 14:00:00,15.5,6.0,29.64,North,351,0.0,0.0,70,0.00,,,0.00,TxWx,2013-01-31 20:00:00,
2013-01-31 14:05:00,15.7,7.0,29.63,NW,317,0.0,0.0,71,0.00,,,0.00,TxWx,2013-01-31 20:05:00,
2013-01-31 14:10:00,15.0,6.0,29.64,North,351,0.0,0.0,70,0.00,,,0.00,TxWx,2013-01-31 20:10:00,
2013-01-31 14:15:00,15.3,7.0,29.64,NW,314,0.0,0.0,74,0.00,,,0.00,TxWx,2013-01-31 20:15:00,
2013-01-31 14:20:00,15.7,8.0,29.64,NW,316,0.0,0.0,74,0.00,,,0.00,TxWx,2013-01-31 20:20:00,
2013-01-31 14:25:00,14.8,8.0,29.64,NW,314,0.0,0.0,78,0.00,,,0.00,TxWx,2013-01-31 20:25:00,
2013-01-31 14:31:00,15.1,9.0,29.64,North,352,0.0,0.0,79,0.00,,,0.00,TxWx,2013-01-31 20:31:00,
2013-01-31 14:36:00,15.1,6.0,29.64,NW,323,0.0,0.0,71,0.00,,,0.00,TxWx,2013-01-31 20:36:00,
2013-01-31 14:41:00,15.2,6.0,29.64,North,351,0.0,0.0,71,0.00,,,0.00,TxWx,2013-01-31 20:41:00,
2013-01-31 14:46:00,14.8,6.0,29.64,North,352,0.0,0.0,71,0.00,,,0.00,TxWx,2013-01-31 20:46:00,
2013-01-31 14:51:00,15.1,6.0,29.65,North,352,0.0,0.0,71,0.00,,,0.00,TxWx,2013-01-31 20:51:00,
2013-01-31 14:56:00,15.0,6.0,29.65,NW,313,0.0,0.0,70,0.00,,,0.00,TxWx,2013-01-31 20:56:00,
2013-01-31 15:02:00,14.7,6.0,29.65,NW,314,0.0,0.0,71,0.00,,,0.00,TxWx,2013-01-31 21:02:00,
2013-01-31 15:07:00,14.4,6.0,29.64,NW,324,0.0,0.0,74,0.00,,,0.00,TxWx,2013-01-31 21:07:00,
2013-01-31 15:12:00,14.2,7.0,29.65,NW,315,0.0,0.0,76,0.00,,,0.00,TxWx,2013-01-31 21:12:00,
2013-01-31 15:17:00,14.3,6.0,29.65,NW,315,0.0,0.0,74,0.00,,,0.00,TxWx,2013-01-31 21:17:00,
2013-01-31 15:22:00,14.2,7.0,29.65,NW,313,0.0,0.0,75,0.00,,,0.00,TxWx,2013-01-31 21:22:00,
2013-01-31 15:27:00,14.0,7.0,29.65,NNE,19,0.0,0.0,78,0.00,,,0.00,TxWx,2013-01-31 21:27:00,
2013-01-31 15:32:00,13.6,9.0,29.65,NW,314,0.0,0.0,83,0.00,,,0.00,TxWx,2013-01-31 21:32:00,
2013-01-31 15:37:00,13.6,10.0,29.65,NW,315,0.0,0.0,86,0.00,,,0.00,TxWx,2013-01-31 21:37:00,
2013-01-31 15:42:00,13.8,10.0,29.66,North,353,0.0,0.0,86,0.00,,,0.00,TxWx,2013-01-31 21:42:00,
2013-01-31 15:47:00,13.7,9.0,29.66,NW,313,0.0,0.0,85,0.00,,,0.00,TxWx,2013-01-31 21:47:00,
2013-01-31 15:53:00,13.5,8.0,29.66,North,352,0.0,0.0,85,0.00,,,0.00,TxWx,2013-01-31 21:53:00,
2013-01-31 15:58:00,13.5,9.0,29.66,ENE,57,0.0,0.0,85,0.00,,,0.00,TxWx,2013-01-31 21:58:00,
2013-01-31 16:03:00,13.7,9.0,29.67,NW,317,0.0,0.0,86,0.00,,,0.00,TxWx,2013-01-31 22:03:00,
2013-01-31 16:08:00,13.2,8.0,29.67,North,350,0.0,0.0,85,0.00,,,0.00,TxWx,2013-01-31 22:08:00,
2013-01-31 16:13:00,13.4,8.0,29.67,ENE,57,0.0,0.0,86,0.00,,,0.00,TxWx,2013-01-31 22:13:00,
2013-01-31 16:19:00,13.3,9.0,29.67,NE,49,0.0,0.0,86,0.00,,,0.00,TxWx,2013-01-31 22:19:00,
2013-01-31 16:24:00,13.1,9.0,29.67,NW,316,0.0,0.0,86,0.00,,,0.00,TxWx,2013-01-31 22:24:00,
2013-01-31 16:29:00,13.0,9.0,29.67,ENE,57,0.0,0.0,87,0.00,,,0.00,TxWx,2013-01-31 22:29:00,
2013-01-31 16:35:00,12.8,9.0,29.67,NW,314,0.0,0.0,87,0.00,,,0.00,TxWx,2013-01-31 22:35:00,
2013-01-31 16:40:00,12.7,9.0,29.68,North,350,0.0,0.0,87,0.00,,,0.00,TxWx,2013-01-31 22:40:00,
2013-01-31 16:45:00,12.6,9.0,29.68,North,350,0.0,0.0,86,0.00,,,0.00,TxWx,2013-01-31 22:45:00,
2013-01-31 16:50:00,12.5,7.0,29.68,NE,45,0.0,0.0,83,0.00,,,0.00,TxWx,2013-01-31 22:50:00,
2013-01-31 16:56:00,12.5,7.0,29.68,NW,314,0.0,0.0,82,0.00,,,0.00,TxWx,2013-01-31 22:56:00,
2013-01-31 17:01:00,12.7,7.0,29.68,North,350,0.0,0.0,81,0.00,,,0.00,TxWx,2013-01-31 23:01:00,
2013-01-31 17:06:00,12.8,7.0,29.68,NW,315,0.0,0.0,80,0.00,,,0.00,TxWx,2013-01-31 23:06:00,
2013-01-31 17:11:00,12.9,7.0,29.69,North,350,0.0,0.0,80,0.00,,,0.00,TxWx,2013-01-31 23:11:00,
2013-01-31 17:16:00,12.9,7.0,29.69,NW,316,0.0,0.0,82,0.00,,,0.00,TxWx,2013-01-31 23:16:00,
2013-01-31 17:22:00,12.4,5.0,29.69,NW,315,0.0,0.0,78,0.00,,,0.00,TxWx,2013-01-31 23:22:00,
2013-01-31 17:27:00,12.5,6.0,29.69,North,350,0.0,0.0,76,0.00,,,0.00,TxWx,2013-01-31 23:27:00,
2013-01-31 17:32:00,12.4,5.0,29.70,NE,45,0.0,0.0,76,0.00,,,0.00,TxWx,2013-01-31 23:32:00,
2013-01-31 17:37:00,12.2,5.0,29.70,North,350,0.0,0.0,77,0.00,,,0.00,TxWx,2013-01-31 23:37:00,
2013-01-31 17:42:00,12.0,6.0,29.70,NW,322,0.0,0.0,79,0.00,,,0.00,TxWx,2013-01-31 23:42:00,
2013-01-31 17:47:00,11.8,6.0,29.70,North,350,0.0,0.0,80,0.00,,,0.00,TxWx,2013-01-31 23:47:00,
2013-01-31 17:53:00,11.7,5.0,29.71,North,350,0.0,0.0,77,0.00,,,0.00,TxWx,2013-01-31 23:53:00,
2013-01-31 17:58:00,11.5,5.0,29.71,North,350,0.0,0.0,78,0.00,,,0.00,TxWx,2013-01-31 23:58:00,
2013-01-31 18:03:00,11.3,6.0,29.72,North,351,0.0,0.0,83,0.00,,,0.00,TxWx,2013-02-01 00:03:00,
2013-01-31 18:08:00,10.9,6.0,29.72,North,354,0.0,0.0,85,0.00,,,0.00,TxWx,2013-02-01 00:08:00,
2013-01-31 18:13:00,11.0,7.0,29.72,NW,313,0.0,0.0,86,0.00,,,0.00,TxWx,2013-02-01 00:13:00,
2013-01-31 18:18:00,11.0,7.0,29.73,NE,43,0.0,0.0,86,0.00,,,0.00,TxWx,2013-02-01 00:18:00,
2013-01-31 18:24:00,11.0,6.0,29.73,NW,315,0.0,0.0,85,0.00,,,0.00,TxWx,2013-02-01 00:24:00,
2013-01-31 18:29:00,11.1,5.0,29.73,NW,315,0.0,0.0,82,0.00,,,0.00,TxWx,2013-02-01 00:29:00,
2013-01-31 18:34:00,11.0,5.0,29.73,North,351,0.0,0.0,82,0.00,,,0.00,TxWx,2013-02-01 00:34:00,
2013-01-31 18:39:00,11.1,6.0,29.73,North,351,0.0,0.0,83,0.00,,,0.00,TxWx,2013-02-01 00:39:00,
2013-01-31 18:44:00,11.2,5.0,29.73,NNE,31,0.0,0.0,80,0.00,,,0.00,TxWx,2013-02-01 00:44:00,
2013-01-31 18:49:00,11.0,5.0,29.74,North,351,0.0,0.0,81,0.00,,,0.00,TxWx,2013-02-01 00:49:00,
2013-01-31 18:55:00,10.7,7.0,29.74,NW,320,0.0,0.0,86,0.00,,,0.00,TxWx,2013-02-01 00:55:00,
2013-01-31 19:00:00,10.8,7.0,29.74,North,351,0.0,0.0,88,0.00,,,0.00,TxWx,2013-02-01 01:00:00,
2013-01-31 19:05:00,10.8,7.0,29.74,North,351,0.0,0.0,87,0.00,,,0.00,TxWx,2013-02-01 01:05:00,
2013-01-31 19:10:00,10.7,7.0,29.74,NW,315,0.0,0.0,88,0.00,,,0.00,TxWx,2013-02-01 01:10:00,
2013-01-31 19:15:00,10.7,7.0,29.75,North,351,0.0,0.0,88,0.00,,,0.00,TxWx,2013-02-01 01:15:00,
2013-01-31 19:20:00,10.5,6.0,29.75,NW,313,0.0,0.0,89,0.00,,,0.00,TxWx,2013-02-01 01:20:00,
2013-01-31 19:26:00,10.4,6.0,29.75,NW,314,0.0,0.0,89,0.00,,,0.00,TxWx,2013-02-01 01:26:00,
2013-01-31 19:31:00,10.5,7.0,29.75,North,351,0.0,0.0,90,0.00,,,0.00,TxWx,2013-02-01 01:31:00,
2013-01-31 19:36:00,10.5,6.0,29.75,NW,320,0.0,0.0,89,0.00,,,0.00,TxWx,2013-02-01 01:36:00,
2013-01-31 19:41:00,10.5,6.0,29.76,North,352,0.0,0.0,88,0.00,,,0.00,TxWx,2013-02-01 01:41:00,
2013-01-31 19:46:00,10.5,6.0,29.76,North,352,0.0,0.0,87,0.00,,,0.00,TxWx,2013-02-01 01:46:00,
2013-01-31 19:51:00,10.7,6.0,29.76,NW,326,0.0,0.0,82,0.00,,,0.00,TxWx,2013-02-01 01:51:00,
2013-01-31 19:56:00,10.8,6.0,29.77,NW,313,0.0,0.0,83,0.00,,,0.00,TxWx,2013-02-01 01:56:00,
2013-01-31 20:02:00,10.2,6.0,29.77,NW,315,0.0,0.0,88,0.00,,,0.00,TxWx,2013-02-01 02:02:00,
2013-01-31 20:07:00,10.0,6.0,29.77,North,352,0.0,0.0,87,0.00,,,0.00,TxWx,2013-02-01 02:07:00,
2013-01-31 20:12:00,9.8,6.0,29.77,ENE,59,0.0,0.0,88,0.00,,,0.00,TxWx,2013-02-01 02:12:00,
2013-01-31 20:17:00,9.5,6.0,29.77,North,352,0.0,0.0,88,0.00,,,0.00,TxWx,2013-02-01 02:17:00,
2013-01-31 20:22:00,9.3,5.0,29.78,NW,315,0.0,0.0,88,0.00,,,0.00,TxWx,2013-02-01 02:22:00,
2013-01-31 20:27:00,9.3,5.0,29.78,North,352,0.0,0.0,88,0.00,,,0.00,TxWx,2013-02-01 02:27:00,
2013-01-31 20:32:00,9.1,6.0,29.78,North,352,0.0,0.0,90,0.00,,,0.00,TxWx,2013-02-01 02:32:00,
2013-01-31 20:38:00,9.1,6.0,29.78,NW,317,0.0,0.0,90,0.00,,,0.00,TxWx,2013-02-01 02:38:00,
2013-01-31 20:43:00,9.0,6.0,29.78,North,352,0.0,0.0,90,0.00,,,0.00,TxWx,2013-02-01 02:43:00,
2013-01-31 20:48:00,8.9,6.0,29.78,NE,44,0.0,0.0,90,0.00,,,0.00,TxWx,2013-02-01 02:48:00,
2013-01-31 20:53:00,8.8,6.0,29.79,North,352,0.0,0.0,90,0.00,,,0.00,TxWx,2013-02-01 02:53:00,
2013-01-31 20:58:00,8.8,6.0,29.79,NW,315,0.0,0.0,90,0.00,,,0.00,TxWx,2013-02-01 02:58:00,
2013-01-31 21:03:00,8.9,6.0,29.79,NW,314,0.0,0.0,90,0.00,,,0.00,TxWx,2013-02-01 03:03:00,
2013-01-31 21:09:00,8.9,6.0,29.79,NNW,327,0.0,0.0,90,0.00,,,0.00,TxWx,2013-02-01 03:09:00,
2013-01-31 21:14:00,8.8,6.0,29.80,NNW,337,0.0,0.0,90,0.00,,,0.00,TxWx,2013-02-01 03:14:00,
2013-01-31 21:19:00,8.8,6.0,29.80,NW,313,0.0,0.0,90,0.00,,,0.00,TxWx,2013-02-01 03:19:00,
2013-01-31 21:24:00,8.7,5.0,29.80,NW,315,0.0,0.0,89,0.00,,,0.00,TxWx,2013-02-01 03:24:00,
2013-01-31 21:29:00,8.8,6.0,29.80,North,360,0.0,0.0,90,0.00,,,0.00,TxWx,2013-02-01 03:29:00,
2013-01-31 21:35:00,8.8,6.0,29.80,NW,314,0.0,0.0,90,0.00,,,0.00,TxWx,2013-02-01 03:35:00,
2013-01-31 21:40:00,8.8,6.0,29.80,NW,316,0.0,0.0,90,0.00,,,0.00,TxWx,2013-02-01 03:40:00,
2013-01-31 21:45:00,8.9,6.0,29.81,NW,323,0.0,0.0,91,0.00,,,0.00,TxWx,2013-02-01 03:45:00,
2013-01-31 21:50:00,8.9,6.0,29.81,NW,316,0.0,0.0,91,0.00,,,0.00,TxWx,2013-02-01 03:50:00,
2013-01-31 21:57:00,9.0,6.0,29.81,North,351,0.0,0.0,90,0.00,,,0.00,TxWx,2013-02-01 03:57:00,
2013-01-31 22:02:00,8.9,6.0,29.81,NW,313,0.0,0.0,90,0.00,,,0.00,TxWx,2013-02-01 04:02:00,
2013-01-31 22:07:00,9.0,6.0,29.81,North,351,0.0,0.0,90,0.00,,,0.00,TxWx,2013-02-01 04:07:00,
2013-01-31 22:12:00,9.1,6.0,29.82,NE,53,0.0,0.0,90,0.00,,,0.00,TxWx,2013-02-01 04:12:00,
2013-01-31 22:17:00,9.0,5.0,29.82,NW,316,0.0,0.0,89,0.00,,,0.00,TxWx,2013-02-01 04:17:00,
2013-01-31 22:23:00,8.9,5.0,29.82,NW,314,0.0,0.0,88,0.00,,,0.00,TxWx,2013-02-01 04:23:00,
2013-01-31 22:28:00,8.7,5.0,29.83,NW,317,0.0,0.0,89,0.00,,,0.00,TxWx,2013-02-01 04:28:00,
2013-01-31 22:34:00,8.7,5.0,29.83,NW,322,0.0,0.0,89,0.00,,,0.00,TxWx,2013-02-01 04:34:00,
2013-01-31 22:39:00,8.7,5.0,29.83,ENE,58,0.0,0.0,88,0.00,,,0.00,TxWx,2013-02-01 04:39:00,
2013-01-31 22:44:00,8.8,5.0,29.83,ENE,58,0.0,0.0,87,0.00,,,0.00,TxWx,2013-02-01 04:44:00,
2013-01-31 22:50:00,8.8,5.0,29.83,North,350,0.0,0.0,86,0.00,,,0.00,TxWx,2013-02-01 04:50:00,
2013-01-31 22:55:00,8.7,5.0,29.83,NW,319,0.0,0.0,86,0.00,,,0.00,TxWx,2013-02-01 04:55:00,
2013-01-31 23:00:00,8.7,5.0,29.84,NW,321,0.0,0.0,87,0.00,,,0.00,TxWx,2013-02-01 05:00:00,
2013-01-31 23:02:00,8.6,5.0,29.84,NW,316,0.0,0.0,87,0.00,,,0.00,TxWx,2013-02-01 05:02:00,
2013-01-31 23:07:00,8.7,5.0,29.84,NW,316,0.0,0.0,86,0.00,,,0.00,TxWx,2013-02-01 05:07:00,
2013-01-31 23:09:00,8.6,4.0,29.84,NW,314,0.0,0.0,85,0.00,,,0.00,TxWx,2013-02-01 05:09:00,
2013-01-31 23:15:00,8.6,4.0,29.84,NW,326,0.0,0.0,85,0.00,,,0.00,TxWx,2013-02-01 05:15:00,
2013-01-31 23:20:00,8.4,4.0,29.85,NW,325,0.0,0.0,87,0.00,,,0.00,TxWx,2013-02-01 05:20:00,
2013-01-31 23:25:00,8.3,4.0,29.85,North,350,0.0,0.0,88,0.00,,,0.00,TxWx,2013-02-01 05:25:00,
2013-01-31 23:30:00,8.3,4.0,29.85,NE,50,0.0,0.0,89,0.00,,,0.00,TxWx,2013-02-01 05:30:00,
2013-01-31 23:35:00,8.2,4.0,29.86,NW,315,0.0,0.0,89,0.00,,,0.00,TxWx,2013-02-01 05:35:00,
2013-01-31 23:41:00,8.2,4.0,29.87,NW,317,0.0,0.0,89,0.00,,,0.00,TxWx,2013-02-01 05:41:00,
2013-01-31 23:46:00,8.1,4.0,29.87,NW,315,0.0,0.0,89,0.00,,,0.00,TxWx,2013-02-01 05:46:00,
2013-01-31 23:51:00,8.0,4.0,29.87,North,350,0.0,0.0,88,0.00,,,0.00,TxWx,2013-02-01 05:51:00,
2013-01-31 23:56:00,8.0,4.0,29.87,NNW,343,0.0,0.0,88,0.00,,,0.00,TxWx,2013-02-01 05:56:00,